AirNav   Duncan Aviation - Near you to keep you flying
 
 1451 users online  

I67 Cincinnati West Airport
Harrison, Ohio, USA

GOING TO HARRISON?


FAA INFORMATION EFFECTIVE 19 MAY 2022

Location

FAA Identifier: I67
Lat/Long: 39-15-33.3670N 084-46-27.5000W
39-15.556117N 084-46.458333W
39.2592686,-84.7743056
(estimated)
Elevation: 584.1 ft. / 178.0 m (surveyed)
Variation: 05W (2010)
From city: 2 miles E of HARRISON, OH
Time zone: UTC -4 (UTC -5 during Standard Time)
Zip code: 45030

Airport Operations

Airport use: Open to the public
Activation date: 09/1945
Control tower: no
ARTCC: INDIANAPOLIS CENTER
FSS: DAYTON FLIGHT SERVICE STATION
NOTAMs facility: DAY (NOTAM-D service available)
Attendance: MON-SAT 0830-1800, ALL SUN 0900-1700
UNATNDD ALL MAJOR HOLS.
Wind indicator: lighted
Segmented circle: no
Lights: ACTVT OR INCR INTST MIRL RWY 01/19 - CTAF. PAPI RWY 01 & 19 OPR CONSLY; MIRL RWY 01/19 PRESET LOW INTST SS-SR.
Beacon: white-green (lighted land airport)
Operates sunset to sunrise.

Airport Communications

CTAF/UNICOM: 123.0
WX AWOS-3PT: 118.15 (513-569-4964)
CINCINNATI APPROACH: 128.7
CINCINNATI DEPARTURE: 128.7
WX ASOS at HAO (13 nm NE): 121.425 (513-863-6137)
WX ASOS at CVG (14 nm S): 134.375 (859-767-8210)
WX AWOS-3PT at OXD (15 nm N): 118.625 (513-273-2032)
WX ASOS at LUK (19 nm SE): PHONE 513-321-6291

Nearby radio navigation aids

VOR radial/distance  VOR name  Freq  Var
CVGr351/15.0CINCINNATI VORTAC117.3004W

 
NDB name  Hdg/Dist  Freq  Var  ID
HOOK FIELD231/20.923904WHKF .... -.- ..-.
BATESVILLE108/23.125405WHLB .... .-.. -...
SPORTYS297/28.224504WPWF .--. .-- ..-.

Airport Services

Fuel available: 100LL
100LL:FUEL AVBL H24 SELF SER.
Parking: hangars and tiedowns
Airframe service: MAJOR
Powerplant service: MAJOR
Bottled oxygen: NONE
Bulk oxygen: NONE

Runway Information

Runway 1/19

Dimensions: 2808 x 60 ft. / 856 x 18 m
Surface: asphalt, in fair condition
Runway edge lights: medium intensity
RUNWAY 1  RUNWAY 19
Latitude: 39-15.324840N39-15.787383N
Longitude: 084-46.459848W084-46.456810W
Elevation: 581.4 ft.580.6 ft.
Traffic pattern: leftleft
Runway heading: 005 magnetic, 000 true185 magnetic, 180 true
Displaced threshold: 75 ft.219 ft.
Markings: nonprecision, in good conditionnonprecision, in good condition
Visual slope indicator: 2-light PAPI on left (3.00 degrees glide path)
UNUSBL BYD 7 DEGS R OF CL.
2-light PAPI on left (3.50 degrees glide path)
UNUSBL BYD 9 DEGS L & R OF CL.
Runway end identifier lights: nono
Touchdown point: yes, no lightsyes, no lights
Obstructions: 16 ft. road, 257 ft. from runway, 3:1 slope to clear
APCH RATIO 20:1 TO DTHR.
57 ft. tree, 442 ft. from runway, 49 ft. left of centerline, 4:1 slope to clear
10 FT BLDGS, 180 FT FM RWY END, 140 FT R.

Airport Ownership and Management from official FAA records

Ownership: Publicly-owned
Owner: CINCINNATI STATE TECH & CMTY COLL
3520 CENTRAL PKWY
CINCINNATI, OH 45223-2612
Phone 513-569-4956
Manager: WILL BERNINGER
10004 WEST RD
HARRISON, OH 45030-1955
Phone 513-367-1201
ADNL CTC 513-367-5070.

Airport Operational Statistics

Aircraft based on the field: 39
Single engine airplanes: 37
Multi engine airplanes: 2
    
Aircraft operations: avg 78/day *
91% local general aviation
9% transient general aviation
<1% air taxi
<1% military
* for 12-month period ending 07 July 2020

Additional Remarks

FOR CD CTC CINCINNATI APCH AT 859-372-6440.

Instrument Procedures

NOTE: All procedures below are presented as PDF files. If you need a reader for these files, you should download the free Adobe Reader.

NOT FOR NAVIGATION. Please procure official charts for flight.
FAA instrument procedures published for use from 19 May 2022 at 0901Z to 16 June 2022 at 0900Z.

 
IAPs - Instrument Approach Procedures
RNAV (GPS) RWY 19   download (208KB)
VOR RWY 19   download (221KB)
NOTE: Special Take-Off Minimums/Departure Procedures apply   download (424KB)

Other nearby airports with instrument procedures:

KHAO - Butler County Regional Airport/Hogan Field (13 nm NE)
KCVG - Cincinnati/Northern Kentucky International Airport (14 nm S)
KOXD - Miami University Airport (15 nm N)
KLUK - Cincinnati Municipal Airport/Lunken Field (19 nm SE)
KMWO - Middletown Regional Airport/Hook Field (24 nm NE)
 
Loc | Ops | Rwys | IFR | FBO | Links
Com | Nav | Svcs | Stats | Notes
Area around I67 (Cincinnati West Airport)
 
Road maps at: MapQuest Bing Google
 
Aerial photo
WARNING: Photo may not be current or correct
Aerial photo of I67 (Cincinnati West Airport)
Photo courtesy of Harrison Social Flites Flying Club
Photo taken 08-Feb-2013
looking north.

Do you have a better or more recent aerial photo of Cincinnati West Airport that you would like to share? If so, please send us your photo.

 
Sectional chart

 
Airport distance calculator
Flying to Cincinnati West Airport? Find the distance to fly.

From to I67

Sunrise and sunset
Times for 20-May-2022
 Local
(UTC-4)
 Zulu
(UTC)
Morning civil twilight05:5209:52
Sunrise06:2210:22
Sunset20:4900:49
Evening civil twilight21:1901:19

Current date and time
Zulu (UTC)  20-May-2022 20:05:20
Local (UTC-4)  20-May-2022 16:05:20
 
METAR
KI67 201955Z AUTO 21012G23KT 10SM CLR 30/16 A2971 RMK AO1
KCVG 
14nm S 
201952Z 20018G29KT 10SM FEW100 29/19 A2973 RMK AO2 PK WND 18029/1902 SLP057 T02940189
KHAO 
14nm NE 
201953Z AUTO 19009G19KT 150V220 10SM CLR 31/17 A2973 RMK AO2 SLP060 T03060172
KOXD 
15nm N 
201955Z AUTO 20014G22KT 10SM CLR 30/13 A2972 RMK AO2 T03000131
KLUK 
19nm SE 
201953Z 19018G23KT 10SM CLR 31/19 A2973 RMK AO2 PK WND 19028/1915 SLP062 T03060189
TAF
KCVG 
14nm S 
201752Z 2018/2124 23012G22KT P6SM SCT150 BKN220 FM210300 20010KT P6SM SCT250 WS020/22040KT FM211000 20008KT P6SM SCT250 FM211300 20012G20KT P6SM SCT090 BKN250 FM212200 19011KT P6SM VCTS SCT040CB BKN250
KLUK 
19nm SE 
201733Z 2018/2118 22015G24KT P6SM SCT150 BKN220 FM202300 20013KT P6SM SCT250 FM210300 20010KT P6SM SCT250 WS020/22040KT FM211000 20008KT P6SM SCT250 FM211300 20011KT P6SM SCT090 BKN250
NOTAMs
Click for the latest NOTAMs
NOTAMs are issued by the DoD/FAA and will open in a separate window not controlled by AirNav.

 

 
 

FBO, Fuel Providers, and Aircraft Ground Support

  
 Business Name 
 
 Contact 
 
 Services / Description 
 
Fuel Prices
 
Comments
  
Cincinnati West Airport 513-367-1201
[web site]
[email]

Like us on facebook
Aviation fuel, Aircraft parking (ramp or tiedown), Hangars, Hangar leasing / sales, Passenger terminal and lounge, Flight training, Aircraft rental, ...
 
Face masks required   Crew car   Enterprise Rent-A-Car  
 
More info about Cincinnati West Airport
Titan
100LL
AS $6.08 
 Updated 12-May-2022
 
   2 read write
AS=Assisted/Self Service
Update Fuel Prices
 

Would you like to see your business listed on this page?

 If your business provides an interesting product or service to pilots, flight crews, aircraft, or users of the Cincinnati West Airport, you should consider listing it here.  To start the listing process, click on the button below
 
Add a business
 

Other Pages about Cincinnati West Airport

www.cincinnatistate.edu/...
 
Update a link
 
Copyright © AirNav, LLC. All rights reserved. Privacy Policy  Contact